STARLINK-4320, 53059

Orbit data source: Space-Track

STARLINK-4320, 53059 is a payload satellite owned by SpaceX/Seattle (US) in SSO that was launched on Mon, 11 Jul 2022 UTC via an FALCON 9 launch vehicle from the Air Force Western Test Range (AFWTR). Payload-class satellites include a variety of spacecraft equipped with specific instruments for various scientific and technological missions. These include communications satellites like Starlink; space stations such as the ISS; scientific satellites like the Hubble; Earth observation satellites from companies like Planet Labs, Umbra, and HawkEye 360; GPS; miniature CubeSats for education and research; and military/defense satellites.

Loading next visibility...
Identifier
53059, 2022-077S
Orbit
SSO
Country
Flag of USUS
Related business
Manufacturer
SpaceX/Seattle
Mission
Operational Commercial Communications
Bus & Motor
STARLINK, Unknown motor
Mass
297 kg wet, ~275 kg dry
Launch date (UTC)
2022-07-11 (3 years ago)
Launch vehicle
FALCON 9
Launch site
Air Force Western Test Range (AFWTR)
Object type
Payload
Rocket body
Debris
Shape & HBR
Box + 1 Pan, 10.1 m
Radar Cross Section
13.562 m², Large (>1 m²)

Expand to show TLE details & history
Last TLE update: 20 hours ago

TLE from 20 hours ago
0 STARLINK-4320
1 53059U 22077S   25348.76682049 -.00000031  00000-0  21023-5 0  9992
2 53059  97.6022 167.0805 0002921  16.4432 343.6887 15.01258598188179
Epoch: 2025-12-14T18:24Z
TLE epoch observation values (Epoch: 2025-12-14T18:24:13.290Z)
Latitude
0.00002°
Longitude
167.3501°
Altitude
564.127 km
Speed
7.58 km/s
True Right ascension
11h 08m 19s
True Declination
0° 00' 00"
Sunlit
Object was in daylight at epoch
Visualization orbit readout
Latitude
Unknown
Longitude
Unknown
Altitude
Unknown
Speed
Unknown
Apparent Right ascension
Unknown
Apparent Declination
Unknown
Sunlit
N/A
Visualization observer readout
Local Sidereal Time
13:20:32
Azimuth
Unknown
Elevation
Unknown
Doppler factor
Unknown
Orbital elements
Apogee altitude
562.04 km
Perigee altitude
557.987 km
Semi-major axis
6,938.15 km
Eccentricity
0.00029
Inclination
97.6022°
RAAN
167.0805°
Arg. of periapsis
16.4432°
True anomaly
343.6793°
Mean anomaly
343.6887°
Eccentric anomaly
343.684°
Mean motion
3.75559 °/min
Orbital period
95.86 mins
BSTAR
0.0000021023
Loading maneuver chart data...
Computing Atmospheric mass density...
Loading historical data...
Loading historical data...
Loading historical data...
Loading historical data...
Loading historical data...
Loading historical data...
Loading historical data...

Documentation

Showing up to 5 results
|